Location: Владивосток
(43.1151°N, 131.8856°E)
Time: 13:45:25
(UTC+10:00)

ISS - Visible Passes

Search period start: 27 January 2022 00:00
Search period end: 06 February 2022 00:00
Orbit: 413 x 422 km, 51.6° (Epoch: 26 January)

Date Brightness Start Highest point End Pass type
(mag) Time Alt. Az. Time Alt. Az. Time Alt. Az.
27 Jan -2.0 18:44:55 10° WNW 18:47:34 21° N 18:50:13 10° NE visible
27 Jan -1.4 20:22:34 10° NW 20:23:52 17° NNW 20:23:52 17° NNW visible
28 Jan -1.9 19:34:24 10° NW 19:36:52 19° N 19:37:47 17° NNE visible
29 Jan -1.7 20:23:08 10° NW 20:24:40 21° NNW 20:24:40 21° NNW visible
30 Jan -2.3 19:35:04 10° NW 19:37:51 23° NNE 19:38:39 21° NE visible
31 Jan -2.4 20:23:33 10° NW 20:25:38 33° NNW 20:25:38 33° NNW visible
01 Feb -3.0 19:35:30 10° NW 19:38:38 37° NNE 19:39:45 28° ENE visible
01 Feb -0.4 21:12:18 10° WNW 21:12:42 13° WNW 21:12:42 13° WNW visible
02 Feb -3.1 20:24:02 10° WNW 20:26:56 55° WSW 20:26:56 55° WSW visible
03 Feb -3.9 19:35:51 10° NW 19:39:12 81° NNE 19:41:20 21° ESE visible
03 Feb -0.4 21:13:51 10° W 21:14:18 11° WSW 21:14:18 11° WSW visible
04 Feb -1.5 20:24:54 10° W 20:27:34 22° SW 20:28:54 17° S visible
05 Feb -2.3 19:36:25 10° WNW 19:39:31 37° SW 19:42:37 10° SSE visible
